Port Huron, MI

11:04 AM EDT on October 19, 2017 (GMT -0400)
Saint Clair County International

Weather History for KPHN - October, 2013

Change the Weather History Date:

Friday, October 11, 2013

  Actual Average (KMTC) Record (KMTC)
Temperature  
Mean Temperature 52 °F -  
Max Temperature 71 °F 60 °F 80 °F (1962)
Min Temperature 33 °F 42 °F 25 °F (1964)
Degree Days  
Heating Degree Days 13    
Growing Degree Days 2 (Base 50)    
Moisture  
Dew Point 45 °F    
Average Humidity 83    
Maximum Humidity 100    
Minimum Humidity 38    
Precipitation  
Precipitation 0.00 in - - ()
Sea Level Pressure  
Sea Level Pressure 30.13 in    
Wind  
Wind Speed 1 mph (ENE)    
Max Wind Speed 7 mph    
Max Gust Speed -    
Visibility 6 miles    
Events Fog    
Averages and records for this station are not official NWS values.
T = Trace of Precipitation, MM = Missing Value Source: NWS Daily Summary

Daily Weather History Graph

Daily Weather History Graph

Search for Another Location

Airport or City:

Trip Planner

Search our weather history database for the weather conditions in past years. The results will help you decide how hot, cold, wet, or windy it might be!

Date:

Astronomy

Oct. 11, 2013 Rise Set
Actual Time 7:39 AM EDT 6:53 PM EDT
Civil Twilight 7:10 AM EDT 7:22 PM EDT
Nautical Twilight 6:37 AM EDT 7:54 PM EDT
Astronomical Twilight 6:04 AM EDT 8:27 PM EDT
Moon 2:24 PM EDT (10/11) No Moon Set
Length of Visible Light 12h 11m
Length of Day
11h 14m
Waxing Crescent, 47% of the Moon is Illuminated
Oct 11
Waxing Crescent
Oct 11
First Quarter
Oct 18
Full
Oct 26
Last Quarter
Nov 3
New

Hourly Weather History & Observations

Time (EDT) Temp. Windchill Dew Point Humidity Pressure Visibility Wind Dir Wind Speed Gust Speed Precip Events Conditions
12:16 AM 41.0 °F - 41.0 °F 100% 30.14 in 0.8 mi Calm Calm - N/A   Mostly Cloudy
12:36 AM 42.8 °F 41.1 °F 42.8 °F 100% 30.14 in 5.0 mi WNW 3.5 mph - N/A   Clear
12:56 AM 41.0 °F - 41.0 °F 100% 30.14 in 0.8 mi Calm Calm - N/A   Mist
1:16 AM 41.0 °F - 41.0 °F 100% 30.14 in 3.0 mi Calm Calm - N/A   Clear
1:36 AM 41.0 °F - 41.0 °F 100% 30.15 in 1.0 mi Calm Calm - N/A   Mostly Cloudy
1:56 AM 41.0 °F - 41.0 °F 100% 30.15 in 0.8 mi Calm Calm - N/A   Overcast
2:16 AM 39.2 °F - 39.2 °F 100% 30.15 in 1.2 mi Calm Calm - N/A   Scattered Clouds
2:36 AM 41.0 °F - 41.0 °F 100% 30.15 in 7.0 mi Calm Calm - N/A   Scattered Clouds
2:56 AM 39.2 °F - 39.2 °F 100% 30.14 in 0.8 mi Calm Calm - N/A   Mist
3:16 AM 39.2 °F - 39.2 °F 100% 30.14 in 2.5 mi Calm Calm - N/A   Clear
3:36 AM 37.4 °F - 37.4 °F 100% 30.13 in 0.2 mi Calm Calm - N/A Fog Fog
3:56 AM 39.2 °F - 39.2 °F 100% 30.13 in 0.8 mi Calm Calm - N/A   Mostly Cloudy
4:16 AM 37.4 °F - 37.4 °F 100% 30.13 in 0.5 mi Calm Calm - N/A Fog Fog
4:36 AM 37.4 °F - 37.4 °F 100% 30.13 in 0.5 mi Calm Calm - N/A Fog Fog
4:56 AM 37.4 °F - 37.4 °F 100% 30.14 in 0.5 mi Calm Calm - N/A Fog Fog
5:16 AM 35.6 °F - 35.6 °F 100% 30.14 in 1.8 mi Calm Calm - N/A   Mist
5:36 AM 37.4 °F - 37.4 °F 100% 30.14 in 2.0 mi Calm Calm - N/A   Clear
5:56 AM 35.6 °F - 35.6 °F 100% 30.14 in 2.5 mi Calm Calm - N/A   Clear
6:16 AM 35.6 °F - 35.6 °F 100% 30.14 in 0.8 mi Calm Calm - N/A   Mist
6:36 AM 35.6 °F - 35.6 °F 100% 30.15 in 1.2 mi Calm Calm - N/A   Scattered Clouds
6:56 AM 35.6 °F - 35.6 °F 100% 30.16 in 0.5 mi Calm Calm - N/A Fog Fog
7:16 AM 33.8 °F - 33.8 °F 100% 30.17 in 0.8 mi Calm Calm - N/A   Mist
7:36 AM 33.8 °F - 33.8 °F 100% 30.17 in 0.5 mi Calm Calm - N/A Fog Fog
7:56 AM 33.8 °F - 33.8 °F 100% 30.16 in 0.2 mi Calm Calm - N/A Fog Fog
8:16 AM 35.6 °F - 35.6 °F 100% 30.16 in 0.2 mi Calm Calm - N/A Fog Fog
8:36 AM 37.4 °F - 37.4 °F 100% 30.17 in 4.0 mi Calm Calm - N/A   Scattered Clouds
8:56 AM 41.0 °F - 41.0 °F 100% 30.18 in 5.0 mi Calm Calm - N/A   Clear
9:16 AM 44.6 °F - 44.6 °F 100% 30.18 in 10.0 mi Calm Calm - N/A   Clear
9:36 AM 48.2 °F - 48.2 °F 100% 30.17 in 10.0 mi Calm Calm - N/A   Clear
9:56 AM 51.8 °F - 51.8 °F 100% 30.17 in 10.0 mi Calm Calm - N/A   Clear
10:16 AM 53.6 °F - 53.6 °F 100% 30.16 in 10.0 mi Calm Calm - N/A   Clear
10:36 AM 55.4 °F - 53.6 °F 94% 30.16 in 10.0 mi Calm Calm - N/A   Clear
10:56 AM 57.2 °F - 50.0 °F 77% 30.16 in 10.0 mi Calm Calm - N/A   Clear
11:16 AM 59.0 °F - 50.0 °F 72% 30.15 in 10.0 mi Calm Calm - N/A   Clear
11:36 AM 60.8 °F - 50.0 °F 68% 30.15 in 10.0 mi Calm Calm - N/A   Clear
11:56 AM 62.6 °F - 48.2 °F 59% 30.15 in 10.0 mi Calm Calm - N/A   Clear
12:16 PM 62.6 °F - 46.4 °F 55% 30.15 in 10.0 mi Calm Calm - N/A   Clear
12:36 PM 64.4 °F - 46.4 °F 52% 30.15 in 10.0 mi Calm Calm - N/A   Clear
12:56 PM 66.2 °F - 46.4 °F 49% 30.14 in 10.0 mi Calm Calm - N/A   Clear
1:16 PM 66.2 °F - 46.4 °F 49% 30.14 in 10.0 mi Calm Calm - N/A   Clear
1:36 PM 68.0 °F - 46.4 °F 46% 30.13 in 10.0 mi ESE 3.5 mph - N/A   Clear
1:56 PM 68.0 °F - 44.6 °F 43% 30.12 in 10.0 mi ESE 3.5 mph - N/A   Clear
2:16 PM 69.8 °F - 44.6 °F 40% 30.12 in 10.0 mi Calm Calm - N/A   Clear
2:36 PM 69.8 °F - 44.6 °F 40% 30.11 in 10.0 mi Calm Calm - N/A   Clear
2:56 PM 69.8 °F - 46.4 °F 43% 30.11 in 10.0 mi East 5.8 mph - N/A   Clear
3:16 PM 71.6 °F - 44.6 °F 38% 30.10 in 10.0 mi Calm Calm - N/A   Clear
3:36 PM 71.6 °F - 46.4 °F 41% 30.10 in 10.0 mi East 4.6 mph - N/A   Clear
3:56 PM 71.6 °F - 44.6 °F 38% 30.10 in 10.0 mi East 3.5 mph - N/A   Clear
4:16 PM 71.6 °F - 46.4 °F 41% 30.10 in 10.0 mi South 6.9 mph - N/A   Clear
4:36 PM 71.6 °F - 46.4 °F 41% 30.10 in 10.0 mi SE 3.5 mph - N/A   Clear
4:56 PM 71.6 °F - 50.0 °F 46% 30.09 in 10.0 mi NE 4.6 mph - N/A   Clear
5:16 PM 69.8 °F - 53.6 °F 56% 30.10 in 10.0 mi NE 6.9 mph - N/A   Clear
5:36 PM 68.0 °F - 53.6 °F 60% 30.10 in 10.0 mi NE 5.8 mph - N/A   Clear
5:56 PM 64.4 °F - 53.6 °F 68% 30.10 in 10.0 mi NE 6.9 mph - N/A   Clear
6:16 PM 62.6 °F - 53.6 °F 72% 30.10 in 10.0 mi NE 4.6 mph - N/A   Clear
6:36 PM 60.8 °F - 53.6 °F 77% 30.11 in 10.0 mi NE 3.5 mph - N/A   Clear
6:56 PM 59.0 °F - 51.8 °F 77% 30.11 in 10.0 mi NNE 3.5 mph - N/A   Clear
7:16 PM 59.0 °F - 51.8 °F 77% 30.12 in 10.0 mi Calm Calm - N/A   Clear
7:36 PM 55.4 °F - 51.8 °F 88% 30.12 in 10.0 mi Calm Calm - N/A   Clear
7:56 PM 53.6 °F - 51.8 °F 94% 30.12 in 10.0 mi Calm Calm - N/A   Clear
8:16 PM 53.6 °F - 51.8 °F 94% 30.12 in 10.0 mi Calm Calm - N/A   Clear
8:36 PM 53.6 °F - 51.8 °F 94% 30.12 in 10.0 mi Calm Calm - N/A   Clear
8:56 PM 55.4 °F - 53.6 °F 94% 30.12 in 10.0 mi Calm Calm - N/A   Clear
9:16 PM 50.0 °F - 50.0 °F 100% 30.12 in 10.0 mi Calm Calm - N/A   Clear
9:36 PM 50.0 °F - 50.0 °F 100% 30.12 in 10.0 mi Calm Calm - N/A   Clear
9:56 PM 48.2 °F - 48.2 °F 100% 30.12 in 1.0 mi Calm Calm - N/A   Mist
10:16 PM 50.0 °F - 50.0 °F 100% 30.12 in 10.0 mi Calm Calm - N/A   Clear
10:36 PM 48.2 °F - 48.2 °F 100% 30.12 in 0.5 mi Calm Calm - N/A Fog Fog
10:56 PM 46.4 °F - 46.4 °F 100% 30.12 in 0.2 mi Calm Calm - N/A Fog Fog
11:16 PM 48.2 °F - 48.2 °F 100% 30.11 in 10.0 mi Calm Calm - N/A   Scattered Clouds
11:36 PM 46.4 °F - 46.4 °F 100% 30.11 in 0.2 mi Calm Calm - N/A Fog Fog
11:56 PM 44.6 °F - 44.6 °F 100% 30.11 in 0.2 mi Calm Calm - N/A Fog Fog